Location: Haram ta Haram Freeway
(35.0583°N, 51.4202°E)
Time: 03:29:09
(UTC+03:30)

IRIDIUM 33 DEB - Pass Details

Date: 07 December 2021
Orbit: 663 x 816 km, 86.4° (Epoch: 21 January)

Event Time Altitude Azimuth Distance (km) Brightness Sun altitude
Rises 19:56:12 0° 230° (SW) 3,330 ? -36.9°
Reaches altitude 10° 20:00:07 10° 258° (WSW) 2,386 ? -37.7°
Maximum altitude 20:02:23 13° 283° (WNW) 2,194 ? -38.1°
Drops below altitude 10° 20:04:38 10° 309° (NW) 2,362 ? -38.6°
Sets 20:08:29 0° 338° (NNW) 3,263 ? -39.4°
